• In Österreich
  • Länderverzeichnis
  • Für 7 Tage
  • Wassertemperatur
  • Satellitenkarten
  • Wetterkarte
  • News
  • Widgets
  • user-avatar
    Anmelden

    Stündliche Wetter Constantine

    Heute, 20 Juli, Freitag

    Zeit Temperatur Niederschläge Wind Luftdruck Luftfeuchtigkeit
    00:00 +30°C° 0 mm 1 m/S 711 mmHg 40%
    01:00 +30°C° 0 mm 1 m/S 711 mmHg 40%
    02:00 +30°C° 0 mm 1 m/S 710 mmHg 39%
    03:00 +30°C° 0 mm 1 m/S 710 mmHg 39%
    04:00 +31°C° 0 mm 1 m/S 710 mmHg 37%
    05:00 +31°C° 0 mm 1 m/S 710 mmHg 36%
    06:00 +32°C° 0 mm 2 m/S 710 mmHg 34%
    07:00 +35°C° 0 mm 2 m/S 711 mmHg 29%
    08:00 +37°C° 0 mm 2 m/S 711 mmHg 24%
    09:00 +39°C° 0 mm 2 m/S 712 mmHg 19%
    10:00 +41°C° 0 mm 2 m/S 712 mmHg 17%
    11:00 +42°C° 0 mm 2 m/S 712 mmHg 16%
    12:00 +44°C° 0 mm 3 m/S 712 mmHg 14%
    13:00 +44°C° 0 mm 3 m/S 711 mmHg 14%
    14:00 +43°C° 0 mm 3 m/S 711 mmHg 15%
    15:00 +43°C° 0 mm 3 m/S 710 mmHg 15%
    16:00 +42°C° 0,3 mm 3 m/S 710 mmHg 18%
    17:00 +40°C° 0,3 mm 4 m/S 710 mmHg 22%
    18:00 +38°C° 0,3 mm 4 m/S 710 mmHg 25%
    19:00 +35°C° 0,4 mm 4 m/S 710 mmHg 31%
    20:00 +33°C° 0,4 mm 4 m/S 711 mmHg 37%
    21:00 +30°C° 0,4 mm 4 m/S 711 mmHg 43%
    22:00 +30°C° 0,1 mm 4 m/S 710 mmHg 42%
    23:00 +30°C° 0,1 mm 3 m/S 710 mmHg 40%

    Morgen, 21 Juli, Samstag

    Zeit Temperatur Niederschläge Wind Luftdruck Luftfeuchtigkeit
    00:00 +30°C° 0,1 mm 3 m/S 709 mmHg 38%
    01:00 +30°C° 0 mm 3 m/S 709 mmHg 36%
    02:00 +30°C° 0 mm 3 m/S 709 mmHg 35%
    03:00 +30°C° 0 mm 3 m/S 708 mmHg 34%
    04:00 +31°C° 0 mm 3 m/S 708 mmHg 33%
    05:00 +33°C° 0 mm 4 m/S 709 mmHg 32%
    06:00 +33°C° 0 mm 4 m/S 709 mmHg 30%
    07:00 +36°C° 0 mm 5 m/S 709 mmHg 26%
    08:00 +39°C° 0 mm 6 m/S 710 mmHg 22%
    09:00 +41°C° 0 mm 7 m/S 710 mmHg 18%
    10:00 +43°C° 0 mm 7 m/S 711 mmHg 17%
    11:00 +44°C° 0 mm 7 m/S 711 mmHg 16%
    12:00 +45°C° 0 mm 7 m/S 711 mmHg 16%
    13:00 +44°C° 0 mm 7 m/S 711 mmHg 18%
    14:00 +44°C° 0 mm 6 m/S 710 mmHg 19%
    15:00 +42°C° 0 mm 6 m/S 710 mmHg 21%
    16:00 +40°C° 0 mm 5 m/S 710 mmHg 26%
    17:00 +38°C° 0 mm 4 m/S 710 mmHg 31%
    18:00 +36°C° 0 mm 3 m/S 710 mmHg 36%
    19:00 +34°C° 0 mm 3 m/S 710 mmHg 41%
    20:00 +32°C° 0 mm 2 m/S 710 mmHg 47%
    21:00 +30°C° 0 mm 2 m/S 710 mmHg 52%
    22:00 +30°C° 0 mm 2 m/S 710 mmHg 53%
    23:00 +29°C° 0 mm 1 m/S 710 mmHg 53%

    übermorgen, 22 Juli, Sonntag

    Zeit Temperatur Niederschläge Wind Luftdruck Luftfeuchtigkeit
    00:00 +29°C° 0 mm 1 m/S 710 mmHg 54%
    01:00 +29°C° 0 mm 1 m/S 710 mmHg 54%
    02:00 +28°C° 0 mm 1 m/S 709 mmHg 54%
    03:00 +28°C° 0 mm 2 m/S 709 mmHg 55%
    04:00 +28°C° 0 mm 2 m/S 709 mmHg 55%
    05:00 +28°C° 0 mm 2 m/S 709 mmHg 56%
    06:00 +27°C° 0 mm 2 m/S 709 mmHg 57%
    07:00 +29°C° 0 mm 2 m/S 709 mmHg 51%
    08:00 +31°C° 0 mm 2 m/S 709 mmHg 44%
    09:00 +34°C° 0 mm 2 m/S 710 mmHg 38%
    10:00 +35°C° 0 mm 2 m/S 710 mmHg 35%
    11:00 +36°C° 0 mm 3 m/S 710 mmHg 32%
    12:00 +37°C° 0 mm 3 m/S 710 mmHg 29%
    13:00 +37°C° 0 mm 3 m/S 710 mmHg 32%
    14:00 +37°C° 0 mm 4 m/S 709 mmHg 34%
    15:00 +36°C° 0 mm 5 m/S 709 mmHg 37%
    16:00 +35°C° 0 mm 4 m/S 709 mmHg 39%
    17:00 +34°C° 0 mm 3 m/S 709 mmHg 40%
    18:00 +31°C° 0 mm 2 m/S 709 mmHg 42%
    19:00 +30°C° 0 mm 3 m/S 710 mmHg 48%
    20:00 +29°C° 0 mm 3 m/S 710 mmHg 53%
    21:00 +28°C° 0 mm 3 m/S 710 mmHg 59%
    22:00 +27°C° 0 mm 2 m/S 710 mmHg 63%
    23:00 +26°C° 0 mm 2 m/S 710 mmHg 67%

    23 Juli, Montag

    Zeit Temperatur Niederschläge Wind Luftdruck Luftfeuchtigkeit
    00:00 +25°C° 0 mm 2 m/S 710 mmHg 71%
    01:00 +24°C° 0 mm 1 m/S 710 mmHg 73%
    02:00 +23°C° 0 mm 1 m/S 710 mmHg 75%
    03:00 +23°C° 0 mm 1 m/S 709 mmHg 78%
    04:00 +23°C° 0 mm 1 m/S 710 mmHg 75%
    05:00 +23°C° 0 mm 1 m/S 710 mmHg 73%
    06:00 +23°C° 0 mm 1 m/S 710 mmHg 70%
    07:00 +25°C° 0 mm 1 m/S 711 mmHg 59%
    08:00 +27°C° 0 mm 1 m/S 711 mmHg 48%
    09:00 +29°C° 0 mm 2 m/S 711 mmHg 37%
    10:00 +30°C° 0 mm 2 m/S 711 mmHg 34%
    11:00 +31°C° 0 mm 3 m/S 711 mmHg 31%
    12:00 +33°C° 0 mm 3 m/S 711 mmHg 28%
    13:00 +34°C° 0 mm 4 m/S 711 mmHg 28%
    14:00 +34°C° 0 mm 4 m/S 711 mmHg 27%
    15:00 +34°C° 0 mm 4 m/S 711 mmHg 27%
    16:00 +33°C° 0 mm 4 m/S 711 mmHg 30%
    17:00 +32°C° 0 mm 4 m/S 711 mmHg 33%
    18:00 +30°C° 0 mm 4 m/S 711 mmHg 36%
    19:00 +28°C° 0 mm 3 m/S 711 mmHg 39%
    20:00 +27°C° 0 mm 2 m/S 711 mmHg 43%
    21:00 +26°C° 0 mm 1 m/S 711 mmHg 47%
    22:00 +25°C° 0 mm 1 m/S 711 mmHg 48%
    23:00 +25°C° 0 mm 1 m/S 710 mmHg 48%

    24 Juli, Dienstag

    Zeit Temperatur Niederschläge Wind Luftdruck Luftfeuchtigkeit
    00:00 +25°C° 0 mm 1 m/S 710 mmHg 49%
    01:00 +24°C° 0 mm 1 m/S 710 mmHg 49%
    02:00 +24°C° 0 mm 1 m/S 710 mmHg 49%
    03:00 +24°C° 0 mm 1 m/S 709 mmHg 49%
    04:00 +24°C° 0 mm 1 m/S 709 mmHg 47%
    05:00 +25°C° 0 mm 1 m/S 710 mmHg 44%
    06:00 +26°C° 0 mm 1 m/S 710 mmHg 41%
    07:00 +28°C° 0 mm 1 m/S 710 mmHg 34%
    08:00 +30°C° 0 mm 1 m/S 711 mmHg 27%
    09:00 +34°C° 0 mm 2 m/S 711 mmHg 21%
    10:00 +35°C° 0 mm 2 m/S 711 mmHg 19%
    11:00 +36°C° 0 mm 3 m/S 711 mmHg 18%
    12:00 +37°C° 0 mm 4 m/S 710 mmHg 16%
    13:00 +37°C° 0 mm 4 m/S 710 mmHg 16%
    14:00 +38°C° 0 mm 4 m/S 710 mmHg 16%
    15:00 +38°C° 0 mm 4 m/S 710 mmHg 17%
    16:00 +37°C° 0 mm 4 m/S 710 mmHg 19%
    17:00 +36°C° 0 mm 4 m/S 710 mmHg 21%
    18:00 +35°C° 0 mm 3 m/S 709 mmHg 23%
    19:00 +34°C° 0 mm 3 m/S 710 mmHg 25%
    20:00 +31°C° 0 mm 2 m/S 710 mmHg 28%
    21:00 +30°C° 0 mm 2 m/S 710 mmHg 31%
    22:00 +29°C° 0 mm 1 m/S 710 mmHg 31%
    23:00 +29°C° 0 mm 1 m/S 709 mmHg 32%

    25 Juli, Mittwoch

    Zeit Temperatur Niederschläge Wind Luftdruck Luftfeuchtigkeit
    00:00 +28°C° 0 mm 1 m/S 709 mmHg 32%
    01:00 +28°C° 0 mm 1 m/S 709 mmHg 32%
    02:00 +26°C° 0 mm 0 m/S 709 mmHg 33%
    03:00 +25°C° 0 mm 0 m/S 709 mmHg 33%
    04:00 +26°C° 0 mm 0 m/S 709 mmHg 32%
    05:00 +28°C° 0 mm 1 m/S 709 mmHg 31%
    06:00 +29°C° 0 mm 1 m/S 710 mmHg 30%
    07:00 +31°C° 0 mm 1 m/S 710 mmHg 27%
    08:00 +32°C° 0 mm 1 m/S 710 mmHg 25%
    09:00 +34°C° 0 mm 1 m/S 711 mmHg 22%
    10:00 +36°C° 0 mm 2 m/S 711 mmHg 21%
    11:00 +37°C° 0 mm 2 m/S 711 mmHg 20%
    12:00 +38°C° 0 mm 3 m/S 711 mmHg 19%
    13:00 +38°C° 0 mm 3 m/S 711 mmHg 19%
    14:00 +38°C° 0 mm 4 m/S 710 mmHg 20%
    15:00 +40°C° 0 mm 4 m/S 710 mmHg 21%
    16:00 +37°C° 0 mm 4 m/S 710 mmHg 24%
    17:00 +36°C° 0 mm 4 m/S 710 mmHg 27%
    18:00 +34°C° 0 mm 4 m/S 710 mmHg 30%
    19:00 +33°C° 0 mm 3 m/S 710 mmHg 34%
    20:00 +31°C° 0 mm 2 m/S 710 mmHg 37%
    21:00 +29°C° 0 mm 1 m/S 710 mmHg 41%
    22:00 +29°C° 0 mm 1 m/S 710 mmHg 41%
    23:00 +28°C° 0 mm 1 m/S 710 mmHg 42%
    Mehr zeigen